Jump to content
  • Member Statistics

    17,499
    Total Members
    7,904
    Most Online
    whatweather
    Newest Member
    whatweather
    Joined

Interior NW & NE Burbs 2022


IrishRob17
 Share

Recommended Posts

22 minutes ago, Juliancolton said:

Nice day today. Feels a little springlike with the GREEN grass all bare and ducks dabbling in open sections of the pond. 

Fixed. I'm just amazed at how green the grass still is around here. Most of the golf courses look to be in better shape than they were during the summer. 

  • Like 2
Link to comment
Share on other sites

1 hour ago, IrishRob17 said:

I finally found some time to come back to this.  Here is 12/80 from the Yorktown observer and it reflects similar to the Walden observations.  Was it a case of a midnight high on 12/25 perhaps?

12-80 Yorktown.JPG

I might have been confusing 1980 with 1983.  I don't think the Yorktown 24 hour period is midnight to midnight.  Maybe 8am to 8am?

Here are hourlies from KSWF.  This isn't error free either...I think most of the 0° temperatures are a stand-in for hours that the temperature is not available.  Also, no precip...just sky conditions.  The wunderground link is https://www.wunderground.com/history/daily/us/ny/newburgh/KSWF/date/1983-12-25

Date
Time
 
 
 
 
Temperature
 
 
 
 
Dew Point
 
 
 
 
Humidity
 
 
 
 
Wind
 
 
 
 
Wind Speed
 
 
 
 
Wind Gust
 
 
 
 
Pressure
 
 
 
 
Precip.
 
 
 
 
Condition
 
 
 
 
KSWF - 1980                    
19801224 12:00 AM 25 °F 17 °F 72 % WSW 14 mph 0 mph 29.49 in 0.0 in Mostly Cloudy
19801224 1:00 AM 25 °F 17 °F 72 % WSW 14 mph 0 mph 29.47 in 0.0 in Partly Cloudy
19801224 2:00 AM 25 °F 17 °F 72 % WSW 16 mph 0 mph 29.46 in 0.0 in Mostly Cloudy
19801224 3:00 AM 25 °F 17 °F 72 % WSW 9 mph 0 mph 29.46 in 0.0 in Mostly Cloudy
19801224 4:00 AM 24 °F 16 °F 71 % WSW 9 mph 0 mph 29.44 in 0.0 in Mostly Cloudy
19801224 5:00 AM 24 °F 16 °F 71 % WSW 12 mph 0 mph 29.42 in 0.0 in Mostly Cloudy
19801224 6:00 AM 25 °F 16 °F 69 % WSW 12 mph 0 mph 29.40 in 0.0 in Mostly Cloudy
19801224 7:00 AM 25 °F 17 °F 72 % WSW 9 mph 0 mph 29.40 in 0.0 in Partly Cloudy
19801224 8:00 AM 25 °F 17 °F 72 % WSW 9 mph 0 mph 29.39 in 0.0 in Partly Cloudy
19801224 9:00 AM 25 °F 17 °F 72 % WSW 12 mph 0 mph 29.38 in 0.0 in Mostly Cloudy
19801224 10:00 AM 26 °F 18 °F 71 % WSW 12 mph 0 mph 29.37 in 0.0 in Mostly Cloudy
19801224 11:00 AM 27 °F 18 °F 69 % SW 6 mph 0 mph 29.32 in 0.0 in Cloudy
19801224 12:00 PM 27 °F 18 °F 69 % W 12 mph 0 mph 29.29 in 0.0 in Cloudy
19801224 1:00 PM 29 °F 19 °F 67 % SW 6 mph 0 mph 29.23 in 0.0 in Cloudy
19801224 2:00 PM 31 °F 22 °F 69 % WSW 7 mph 0 mph 29.20 in 0.0 in Cloudy
19801224 3:00 PM 31 °F 28 °F 89 % WSW 9 mph 0 mph 29.20 in 0.0 in Cloudy
19801224 4:00 PM 31 °F 28 °F 89 % CALM 0 mph 0 mph 29.15 in 0.0 in Cloudy
19801224 5:00 PM 29 °F 29 °F 100 % CALM 0 mph 0 mph 29.15 in 0.0 in Cloudy
19801224 6:00 PM 29 °F 29 °F 100 % CALM 0 mph 0 mph 29.12 in 0.0 in Cloudy
19801224 7:00 PM 29 °F 29 °F 100 % W 7 mph 0 mph 29.11 in 0.0 in Cloudy
19801224 8:00 PM 28 °F 24 °F 85 % W 7 mph 0 mph 29.11 in 0.0 in Cloudy
19801224 9:00 PM 28 °F 24 °F 85 % W 17 mph 29 mph 29.14 in 0.0 in Cloudy
19801224 10:00 PM 23 °F 10 °F 58 % WNW 29 mph 40 mph 29.18 in 0.0 in Mostly Cloudy / Windy
19801224 11:00 PM 17 °F 0 °F 47 % WNW 29 mph 40 mph 29.23 in 0.0 in Mostly Cloudy / Windy
                     
19801225 1:00 AM 9 °F -7 °F 48 % W 35 mph 46 mph 29.37 in 0.0 in Mostly Cloudy / Windy
19801225 3:00 AM -2 °F 0 °F 0 % W 35 mph 0 mph 29.37 in 0.0 in Mostly Cloudy / Windy
19801225 5:00 AM 0 °F -12 °F 57 % W 23 mph 35 mph 29.51 in 0.0 in Fair / Windy
19801225 6:00 AM 0 °F -12 °F 57 % W 35 mph 48 mph 29.52 in 0.0 in Fair / Windy
19801225 7:00 AM 0 °F 0 °F 0 % WNW 23 mph 35 mph 29.57 in 0.0 in Fair / Windy
19801225 8:00 AM -7 °F -20 °F 53 % W 17 mph 29 mph 29.62 in 0.0 in Fair
19801225 9:00 AM -7 °F -20 °F 53 %   0 mph 0 mph 29.67 in 0.0 in Fair
19801225 10:00 AM 0 °F 0 °F 0 % WNW 17 mph 29 mph 29.72 in 0.0 in Fair
19801225 11:00 AM -3 °F -17 °F 51 % WNW 17 mph 29 mph 29.73 in 0.0 in Fair
19801225 12:00 PM -3 °F -17 °F 51 % WNW 17 mph 29 mph 29.72 in 0.0 in Fair
19801225 2:00 PM -3 °F -17 °F 51 % WNW 17 mph 29 mph 29.71 in 0.0 in Fair
19801225 3:00 PM 0 °F -11 °F 60 % WNW 17 mph 29 mph 29.75 in 0.0 in Fair
19801225 4:00 PM 2 °F -9 °F 60 % W 17 mph 25 mph 29.77 in 0.0 in Fair
19801225 7:00 PM 2 °F -9 °F 60 % W 17 mph 29 mph 29.79 in 0.0 in Fair
19801225 8:00 PM 0 °F -12 °F 57 % W 17 mph 0 mph 29.82 in 0.0 in Fair
19801225 9:00 PM 0 °F -12 °F 57 % W 2 mph 0 mph 29.84 in 0.0 in Fair
                     
19801226 1:00 AM -4 °F -11 °F 72 % WSW 12 mph 0 mph 29.84 in 0.0 in Mostly Cloudy
19801226 3:00 AM -4 °F -11 °F 72 % WSW 5 mph 0 mph 29.85 in 0.0 in Mostly Cloudy
19801226 5:00 AM -4 °F -11 °F 72 % WSW 14 mph 0 mph 29.85 in 0.0 in Mostly Cloudy
19801226 7:00 AM -2 °F -6 °F 83 % SW 9 mph 0 mph 29.87 in 0.0 in Partly Cloudy
19801226 8:00 AM -2 °F -6 °F 83 % WSW 12 mph 0 mph 29.88 in 0.0 in Partly Cloudy
19801226 9:00 AM 1 °F -3 °F 83 % W 9 mph 0 mph 29.88 in 0.0 in Partly Cloudy
19801226 11:00 AM 1 °F -3 °F 83 % ENE 9 mph 0 mph 29.88 in 0.0 in Partly Cloudy
19801226 12:00 PM -6 °F 0 °F 0 % WSW 5 mph 0 mph 29.88 in 0.0 in Mostly Cloudy
19801226 1:00 PM 19 °F -4 °F 36 % CALM 0 mph 0 mph 29.84 in 0.0 in Mostly Cloudy
19801226 2:00 PM 19 °F -4 °F 36 % W 5 mph 0 mph 29.82 in 0.0 in Cloudy
19801226 3:00 PM 19 °F -4 °F 36 % W 5 mph 0 mph 29.82 in 0.0 in Cloudy
19801226 5:00 PM 18 °F 1 °F 48 % WSW 7 mph 0 mph 29.83 in 0.0 in Cloudy
19801226 6:00 PM 17 °F 6 °F 62 % WSW 5 mph 0 mph 29.85 in 0.0 in Cloudy
19801226 7:00 PM 17 °F 0 °F 47 % CALM 0 mph 0 mph 29.86 in 0.0 in Mostly Cloudy
19801226 8:00 PM 17 °F 0 °F 47 % CALM 0 mph 0 mph 29.88 in 0.0 in Cloudy
19801226 9:00 PM 17 °F 0 °F 47 % CALM 0 mph 0 mph 29.89 in 0.0 in Mostly Cloudy
19801226 10:00 PM 15 °F 3 °F 59 % W 5 mph 0 mph 0.00 in 0.0 in Partly Cloudy
19801226 11:00 PM 15 °F 7 °F 70 % WSW 7 mph 0 mph 29.90 in 0.0 in Mostly Cloudy
                     
Date
Time
 
 
 
 
Temperature
 
 
 
 
Dew Point
 
 
 
 
Humidity
 
 
 
 
Wind
 
 
 
 
Wind Speed
 
 
 
 
Wind Gust
 
 
 
 
Pressure
 
 
 
 
Precip.
 
 
 
 
Condition
 
 
 
 
KSWF - 1983                    
19831224 12:00 AM 19 °F 9 °F 65 % WSW 8 mph 0 mph 29.43 in 0.0 in Cloudy
19831224 1:00 AM 19 °F 10 °F 68 % WSW 5 mph 0 mph 29.38 in 0.0 in Cloudy
19831224 2:00 AM 19 °F 10 °F 68 % WSW 5 mph 0 mph 29.36 in 0.0 in Cloudy
19831224 3:00 AM 19 °F 11 °F 71 % WSW 7 mph 0 mph 29.32 in 0.0 in Cloudy
19831224 4:00 AM 19 °F 10 °F 68 % SW 5 mph 0 mph 29.28 in 0.0 in Cloudy
19831224 5:00 AM 19 °F 10 °F 68 % SW 5 mph 0 mph 29.24 in 0.0 in Cloudy
19831224 6:00 AM 19 °F 10 °F 68 % SW 5 mph 0 mph 29.22 in 0.0 in Cloudy
19831224 7:00 AM 19 °F 9 °F 65 % WSW 7 mph 0 mph 29.20 in 0.0 in Cloudy
19831224 8:00 AM 18 °F 11 °F 74 % W 14 mph 0 mph 29.18 in 0.0 in Cloudy
19831224 9:00 AM 18 °F 9 °F 68 % WNW 14 mph 0 mph 29.15 in 0.0 in Cloudy
19831224 10:00 AM 18 °F 11 °F 74 % WNW 14 mph 21 mph 29.14 in 0.0 in Cloudy
19831224 11:00 AM 18 °F 7 °F 62 % WNW 17 mph 29 mph 29.09 in 0.0 in Mostly Cloudy
19831224 12:00 PM 18 °F 5 °F 57 % W 17 mph 29 mph 29.06 in 0.0 in Mostly Cloudy
19831224 1:00 PM 18 °F 5 °F 57 % W 17 mph 29 mph 29.06 in 0.0 in Mostly Cloudy
19831224 2:00 PM 15 °F -3 °F 45 % NW 29 mph 37 mph 29.02 in 0.0 in Mostly Cloudy / Windy
19831224 3:00 PM 14 °F -5 °F 43 % NW 21 mph 37 mph 29.03 in 0.0 in Cloudy / Windy
19831224 4:00 PM 13 °F -6 °F 43 % WNW 17 mph 29 mph 29.04 in 0.0 in Mostly Cloudy
19831224 5:00 PM 11 °F -7 °F 44 % WNW 17 mph 29 mph 29.09 in 0.0 in Mostly Cloudy
19831224 6:00 PM 11 °F -5 °F 49 % W 14 mph 25 mph 29.11 in 0.0 in Partly Cloudy
19831224 7:00 PM 10 °F -5 °F 51 % WNW 14 mph 23 mph 29.12 in 0.0 in Partly Cloudy
19831224 8:00 PM 10 °F -5 °F 51 % WNW 14 mph 23 mph 29.14 in 0.0 in Partly Cloudy
19831224 9:00 PM 10 °F -5 °F 51 % W 14 mph 23 mph 29.14 in 0.0 in Partly Cloudy
19831224 10:00 PM 8 °F -9 °F 46 % W 17 mph 29 mph 29.12 in 0.0 in Partly Cloudy
19831224 11:00 PM 8 °F -9 °F 46 % W 17 mph 29 mph 29.12 in 0.0 in Partly Cloudy
                     
             
19831225 7:00 AM 4 °F -8 °F 58 % W 14 mph 25 mph 29.20 in 0.0 in Cloudy
19831225 8:00 AM 4 °F -8 °F 58 % W 14 mph 25 mph 29.22 in 0.0 in Cloudy
19831225 9:00 AM 3 °F -7 °F 63 % W 12 mph 25 mph 29.23 in 0.0 in Mostly Cloudy
19831225 10:00 AM 4 °F -5 °F 66 % W 17 mph 29 mph 29.26 in 0.0 in Mostly Cloudy
19831225 11:00 AM 4 °F -5 °F 66 % W 17 mph 29 mph 29.26 in 0.0 in Mostly Cloudy
19831225 12:00 PM 9 °F -1 °F 64 % WNW 17 mph 29 mph 29.26 in 0.0 in Mostly Cloudy
19831225 1:00 PM 10 °F -2 °F 58 % NW 17 mph 29 mph 29.26 in 0.0 in Mostly Cloudy
19831225 2:00 PM 10 °F -6 °F 49 % NW 17 mph 29 mph 29.26 in 0.0 in Partly Cloudy
19831225 3:00 PM 11 °F -8 °F 42 % WNW 17 mph 29 mph 29.28 in 0.0 in Partly Cloudy
19831225 4:00 PM 9 °F -11 °F 40 % WNW 17 mph 29 mph 29.30 in 0.0 in Fair
19831225 5:00 PM 9 °F -11 °F 40 % WNW 17 mph 29 mph 29.33 in 0.0 in Partly Cloudy
19831225 6:00 PM 8 °F -11 °F 42 % W 14 mph 0 mph 29.35 in 0.0 in Partly Cloudy
19831225 7:00 PM 7 °F -11 °F 44 % W 17 mph 0 mph 29.37 in 0.0 in Fair
19831225 8:00 PM 7 °F -8 °F 51 % W 14 mph 0 mph 29.38 in 0.0 in Fair
19831225 9:00 PM 7 °F -7 °F 53 % W 14 mph 0 mph 29.39 in 0.0 in Fair
19831225 10:00 PM 7 °F -6 °F 55 % W 14 mph 0 mph 29.40 in 0.0 in Fair
19831225 11:00 PM 7 °F -5 °F 58 % W 17 mph 0 mph 29.39 in 0.0 in Fair
                     
19831226 12:00 AM 7 °F -6 °F 55 % W 21 mph 0 mph 29.39 in 0.0 in Fair / Windy
19831226 1:00 AM 6 °F -6 °F 58 % W 18 mph 29 mph 29.40 in 0.0 in Fair
19831226 7:00 AM 4 °F -9 °F 55 % W 17 mph 29 mph 29.51 in 0.0 in Fair
19831226 8:00 AM 4 °F -9 °F 55 % W 17 mph 29 mph 29.51 in 0.0 in Fair
19831226 10:00 AM 6 °F -5 °F 60 % W 14 mph 25 mph 29.60 in 0.0 in Fair
19831226 11:00 AM 8 °F -3 °F 61 % W 14 mph 23 mph 29.60 in 0.0 in Fair
19831226 12:00 PM 10 °F -4 °F 53 % W 12 mph 18 mph 29.57 in 0.0 in Fair
19831226 1:00 PM 12 °F 1 °F 61 % W 14 mph 18 mph 29.55 in 0.0 in Fair
19831226 2:00 PM 14 °F 1 °F 56 % W 14 mph 21 mph 29.55 in 0.0 in Fair
19831226 3:00 PM 15 °F -3 °F 45 % WSW 17 mph 0 mph 29.56 in 0.0 in Fair
19831226 4:00 PM 15 °F -3 °F 45 % W 16 mph 23 mph 29.57 in 0.0 in Fair
19831226 5:00 PM 14 °F -6 °F 41 % W 10 mph 0 mph 29.58 in 0.0 in Fair
19831226 6:00 PM 12 °F -7 °F 42 % W 7 mph 0 mph 29.60 in 0.0 in Fair
19831226 7:00 PM 12 °F -7 °F 42 % W 7 mph 0 mph 29.61 in 0.0 in Fair
19831226 8:00 PM 11 °F -6 °F 47 % W 12 mph 0 mph 29.61 in 0.0 in Fair
19831226 9:00 PM 11 °F -6 °F 47 % W 12 mph 0 mph 29.62 in 0.0 in Fair
19831226 10:00 PM 10 °F -6 °F 49 % W 7 mph 0 mph 29.63 in 0.0 in Fair
19831226 11:00 PM 10 °F -6 °F 49 % W 7 mph 0 mph 29.63 in 0.0 in Fair
                   
  • Like 2
Link to comment
Share on other sites

Another grincher storm just in time for the holidays, unfortunate but at least there’s only maybe 3-4” of pack leftover from last week’s pair of events as compared to the 18” of pack from Christmas 2020’s grincher 

 

what I’d give to be in Buffalo or Watertown this weekend, though, another king-sized LES event for those areas 

  • Like 2
Link to comment
Share on other sites

1 hour ago, crossbowftw3 said:

Another grincher storm just in time for the holidays, unfortunate but at least there’s only maybe 3-4” of pack leftover from last week’s pair of events as compared to the 18” of pack from Christmas 2020’s grincher 

 

what I’d give to be in Buffalo or Watertown this weekend, though, another king-sized LES event for those areas 

this a real kick in the knockers for east coast ski areas.  its unbelievable, virtually every year.

  • Like 3
Link to comment
Share on other sites

16 minutes ago, hudsonvalley21 said:

Yup agree, I see there’s a bunch of schools doing early dismissals tomorrow. Hopefully there’s no issues on the roads. The front will be in our area around noon when these schools are getting out.  

The models have certainly sped up the front, tomorrow with be a nowcast for sure with the timing of the freezing temps and if there is any precipitation left right before/ as the freeze arrives. 

  • Like 1
Link to comment
Share on other sites

1 hour ago, LibertyBell said:

Thanks Walt, I think the Poconos had  a max of about an inch and it was all rain by sunset.

 

Please note CoCoRaHs snowfall map attached as well as NWS local snowfall reports and the CoCoRaHs 24 hour rainfall (not much LI, heavy rain focused Hud Valley). There was some marginal ice from Easton PA yesterday through nw NJ.  Salting was needed and it still was a little icy at 6PM in Wantage where frozen ground kept it slippery despite temps of 33F 

We are not done, back end on its way today. 

 

 

Screen Shot 2022-12-23 at 8.19.30 AM.png

Screen Shot 2022-12-23 at 8.16.44 AM.png

Screen Shot 2022-12-23 at 8.18.16 AM.png

  • Thanks 2
Link to comment
Share on other sites

2 minutes ago, wdrag said:

Please note CoCoRaHs snowfall map attached as well as NWS local snowfall reports and the CoCoRaHs 24 hour rainfall (not much LI, heavy rain focused Hud Valley). There was some marginal ice from Easton PA yesterday through nw NJ.  Salting was needed and it still was a little icy at 6PM in Wantage where frozen ground kept it slippery despite temps of 33F 

We are not done, back end on its way today. 

 

 

Screen Shot 2022-12-23 at 8.19.30 AM.png

Screen Shot 2022-12-23 at 8.16.44 AM.png

Screen Shot 2022-12-23 at 8.18.16 AM.png

Thanks Walt, please keep us updated with final totals as I'm sure there will be backend snow.  Do you have any Poconos winds reports too?

 

Link to comment
Share on other sites

Create an account or sign in to comment

You need to be a member in order to leave a comment

Create an account

Sign up for a new account in our community. It's easy!

Register a new account

Sign in

Already have an account? Sign in here.

Sign In Now
 Share

  • Recently Browsing   0 members

    • No registered users viewing this page.
×
×
  • Create New...